Simultaneous Nadir Overpasses (SNOs) Predictions

Prediction of SNOs between GOES-16 and METOP-C Satellite Orbit:

Table of predicted SNOs for the next 14.0 days since TLE Epoch: 5/2/2020
Index Date Time (GOES-16) GOES-16 Lat,Lon METOP-C Lat,Lon Distance(km) Time Diff (sec)
1 05/03/2020 02:44:21 -0.03, -75.18 -0.61, -77.78 295.45 80
2 05/04/2020 02:21:02 -0.03, -75.18 0.49, -72.78 273.88 80
3 05/05/2020 14:39:53 0.03, -75.22 0.53, -77.34 242.33 80
4 05/06/2020 14:21:55 0.03, -75.22 -0.63, -72.35 327.42 80
5 05/08/2020 02:40:56 -0.03, -75.21 -0.41, -76.95 198.20 80
6 05/09/2020 02:17:36 -0.03, -75.22 0.69, -71.95 371.59 80
7 05/10/2020 14:36:28 0.02, -75.25 0.32, -76.51 144.06 80
8 05/11/2020 14:18:29 0.02, -75.26 -0.83, -71.53 426.12 80
9 05/13/2020 02:37:31 -0.01, -75.26 -0.20, -76.13 98.46 80
10 05/14/2020 02:14:11 -0.01, -75.28 0.90, -71.13 472.10 80
11 05/15/2020 14:33:02 0.00, -75.33 0.11, -75.69 42.29 80




NCC Satellite Simultaneous Nadir Overpasses (SNOs) Prediction Service
